Погода в Хонч Нуре

Россия / Республика Калмыкия     48°11′13″N   45°01′12″E
темп.,
°C
ветер,
м/с
пор.,
м/с
влажн.,
%
обл.,
%
осадки,
мм/ч
давл.,
гПа
погр.,
м
18 мая, вт
вт1800:00+19в483112 0.0 1008111
03:00+18в4102847 0.0 1007140
06:00+19вюв35380 0.0 1007115
09:00+25юв34294 0.0 1006578
12:00+29ю6825100 0.0 10071684
15:00+24юз2449100 0.0 1008366
18:00+23зюз666111 0.0 1009517
21:00+18зсз49813 0.0 1010263
19 мая, ср
ср1900:00+16зсз35833 0.0 1011114
03:00+15сз33914 0.0 101045
06:00+17сз348226 0.0 1010158
09:00+22ссв3355100 0.0 1009531
12:00+26в2235100 0.0 10081079
15:00+28юз5632100 0.0 10091793
18:00+18з91468100 0.0 1011539
21:00+16з41073100 0.1 1013477
20 мая, чт
чт2000:00+14юз457738 0.0 1014103
03:00+13юз4985100 0.0 1014298
06:00+14юз47781 0.0 1015386
09:00+19зюз67571 0.0 10151166
12:00+22зюз684793 0.0 10152008
15:00+21зюз3647100 0.0 10151732
18:00+21з355012 0.0 1015655
21:00+17зсз33664 0.0 101623
21 мая, пт
пт2100:00+15в11685 0.0 101511
03:00+15ююв2271100 0.0 101613
06:00+17юв2367100 0.0 101798
09:00+23ююв34445 0.0 1017756
12:00+27ююв333329 0.0 10161671
15:00+29юв352781 0.0 10152148
18:00+28вюв46347 0.0 1014175
21:00+22вюв411425 0.0 1015168
22 мая, сб
сб2200:00+20вюв454439 0.0 101552
03:00+18вюв5114864 0.0 1015179
06:00+20вюв7175124 0.0 1014482
09:00+27вюв1014305 0.0 10141101
12:00+32юв111322100 0.0 10131840
15:00+33юв9122340 0.0 10122319
18:00+31юв7122819 0.0 1012419
21:00+24вюв5133491 0.0 1012206